Tracking 22879 objects as of 20-Apr-2021
HD Live streaming from Space Station
objects crossing your sky now

ONEWEB-0060

Track ONEWEB-0060 now!
10-day predictions
ONEWEB-0060 is classified as:


NORAD ID: 45455
Int'l Code: 2020-020AH
Perigee: 1,224.1 km
Apogee: 1,227.0 km
Inclination: 87.9 °
Period: 109.8 minutes
Semi major axis: 7596 km
RCS: Unknown
Launch date: March 21, 2020
Source: United Kingdom (UK)
Launch site: TYURATAM MISSILE AND SPACE COMPLEX (TTMTR)
aabbcc
Your satellite tracking list
Your tracking list is empty




NASA's NSSDC Master Catalog

Two Line Element Set (TLE):
1 45455U 20020AH  21110.51665236 -.00000413  00000-0 -12039-2 0  9993
2 45455  87.8947  35.5493 0001908  76.0258 284.1082 13.11231149 55666
Source of the keplerian elements: AFSPC